Changchun Longjia International

Airport
ICAO code: 
ZYCC
Summary
ICAO Region: 
APAC
Territory: 
Location: 
Changchun, Jilin,
Coordinates: 
Aerial View: 
43° 59' 46" N, 125° 41' 7.001" E
Metar
Observation
ZYCC 021900Z 30003MPS CAVOK M11/M14 Q1015 NOSIG
Station
Changchun
Date/Time
2021-12-02 19:00:00
Wind direction
300°
Lowest cloud amount
clouds and visibility OK
Temperature
-11°C
Dew point
-14°C
Humidity
78%
QNH
1015 hPa
Weather condition
n/a

Changchun Longjia International Airport is an airport in Jilin Province, People's Republic of China (IATA: CGQ), for which it is an aviation hub. The airport is 31.2 km north-east of Changchun and 76 km north-west of Jilin City.

Runways

Designator Length Width Surface Rops
6/24 3200 45 CON Yes/Yes
Airport map: 
Aerial View: 

SKYbrary Partners:

Safety knowledge contributed by: